Powrót do katalogu

STARLINK-31078

AktywnyŁącznośćVLEO
NORAD 58638·PAYLOAD·🇺🇸 United States

Wystrzelony Dec 23, 2023 z Cape Canaveral Space Force Station

Loading…

Następne Przeloty (najbliższe 24 godziny)

TLE

ŚwieżeSource: CelesTrak SupGP

Epoka: Sep 14, 2026, 20:57 UTC

1 58638C 23203W   26257.87340278  .00009531  00000+0  34525-3 0  2577
2 58638  43.0026  78.8845 0001259 273.0409  38.6421 15.27568842    12

Śledź STARLINK-31078 w czasie rzeczywistym z AllMySat

Download on the App Store